STARLINK-1821, 46718

Orbit data source: Space-Track

STARLINK-1821, 46718 is a payload satellite owned by SpaceX/Seattle (US) in LEO that was launched on Sun, 18 Oct 2020 UTC via an FALCON 9 launch vehicle from the Air Force Eastern Test Range (AFETR). Payload-class satellites include a variety of spacecraft equipped with specific instruments for various scientific and technological missions. These include communications satellites like Starlink; space stations such as the ISS; scientific satellites like the Hubble; Earth observation satellites from companies like Planet Labs, Umbra, and HawkEye 360; GPS; miniature CubeSats for education and research; and military/defense satellites.

Loading next visibility...
Identifier
46718, 2020-073BA
Orbit
LEO
Country
Flag of USUS
Related business
Manufacturer
SpaceX/Seattle
Mission
Partially operational Commercial Communications
Bus & Motor
STARLINK, Unknown motor
Mass
260 kg wet, ~248 kg dry
Launch date (UTC)
2020-10-18 (6 years ago)
Launch vehicle
FALCON 9
Launch site
Air Force Eastern Test Range (AFETR)
Object type
Payload
Rocket body
Debris
Shape & HBR
Box + 1 Pan, 10.1 m
Radar Cross Section
13.562 m², Large (>1 m²)

Expand to show TLE details & history
Last TLE update: 16 hours ago

TLE from 16 hours ago
0 STARLINK-1821
1 46718U 20073BA  26126.73542941  .00084796  00000-0  16712-2 0  9993
2 46718  53.0465 311.3361 0000643  49.5508 310.5554 15.46505009306303
Epoch: 2026-05-06T17:39Z
TLE epoch observation values (Epoch: 2026-05-06T17:39:01.101Z)
Latitude
-0.00003°
Longitude
-178.01016°
Altitude
427.569 km
Speed
7.656 km/s
True Right ascension
20h 45m 20s
True Declination
0° 00' 00"
Sunlit
Object was in daylight at epoch
Visualization orbit readout
Latitude
Unknown
Longitude
Unknown
Altitude
Unknown
Speed
Unknown
Apparent Right ascension
Unknown
Apparent Declination
Unknown
Sunlit
N/A
Visualization observer readout
Local Sidereal Time
17:21:22
Azimuth
Unknown
Elevation
Unknown
Doppler factor
Unknown
Orbital elements
Apogee altitude
427.674 km
Perigee altitude
426.799 km
Semi-major axis
6,805.373 km
Eccentricity
0.00006
Inclination
53.0465°
RAAN
311.3361°
Arg. of periapsis
49.5508°
True anomaly
310.5498°
Mean anomaly
310.5554°
Eccentric anomaly
310.5526°
Mean motion
3.86603 °/min
Orbital period
93.12 mins
BSTAR
0.0016712
Loading maneuver chart data...
Computing Atmospheric mass density...
Loading historical data...
Loading historical data...
Loading historical data...
Loading historical data...
Loading historical data...
Loading historical data...
Loading historical data...

Documentation

Showing up to 5 results
|